Location: Frankfurt+(oder)
(51.7984°N, 12.2168°E)
Time: 10:35:02
(UTC+01:00)

Envisat - Visible Passes

Search period start: 24 November 2017 00:00
Search period end: 04 December 2017 00:00
Orbit: 764 x 766 km, 98.2° (Epoch: 23 November)

Date Brightness Start Highest point End Pass type
(mag) Time Alt. Az. Time Alt. Az. Time Alt. Az.
24 Nov 4.7 18:24:47 17° NNE 18:24:47 17° NNE 18:26:25 10° N visible
24 Nov 5.3 20:04:59 17° NNW 20:04:59 17° NNW 20:06:07 10° NNW visible
25 Nov 4.9 17:47:42 12° NNE 17:47:42 12° NNE 17:48:42 10° NNE visible
25 Nov 4.9 19:27:55 19° N 19:27:55 19° N 19:29:22 10° N visible
26 Nov 4.8 18:50:50 19° N 18:50:50 19° N 18:52:22 10° N visible
26 Nov 5.7 20:31:03 13° NNW 20:31:03 13° NNW 20:31:33 10° NNW visible
27 Nov 4.8 18:13:45 15° NNE 18:13:45 15° NNE 18:15:04 10° N visible
27 Nov 5.3 19:53:58 16° NNW 19:53:58 16° NNW 19:55:01 10° NNW visible
28 Nov 5.0 17:36:40 11° NNE 17:36:40 11° NNE 17:37:00 10° NNE visible
28 Nov 4.9 19:16:53 18° N 19:16:53 18° N 19:18:11 10° N visible
29 Nov 6.0 07:13:24 10° ENE 07:15:33 12° E 07:17:41 10° ESE visible
29 Nov 4.8 18:39:47 17° NNE 18:39:47 17° NNE 18:41:07 10° N visible
29 Nov 5.6 20:20:00 13° NNW 20:20:00 13° NNW 20:20:31 10° NNW visible
30 Nov 4.9 18:02:42 13° NNE 18:02:42 13° NNE 18:03:41 10° NNE visible
30 Nov 5.2 19:42:54 16° NNW 19:42:54 16° NNW 19:43:53 10° NNW visible
01 Dec 5.0 19:05:48 17° N 19:05:48 17° N 19:07:00 10° N visible
02 Dec 4.9 18:28:42 15° NNE 18:28:42 15° NNE 18:29:51 10° N visible
02 Dec 5.5 20:08:55 13° NNW 20:08:55 13° NNW 20:09:27 10° NNW visible
03 Dec 5.0 17:51:36 12° NNE 17:51:36 12° NNE 17:52:13 10° NNE visible
03 Dec 5.2 19:31:49 16° N 19:31:49 16° N 19:32:44 10° N visible
